[[{"header":{"parameterUnit":"m.s-1","parameterCategory":1,"la1":30.2991,"la2":30.254,"lo1":-89.0895,"lo2":-89.0444,"dy":0.0017,"dx":0.0017,"nx":28,"ny":28,"refTime":"2025-05-01T09:00:00:Z","depth":0,"parameterNumber":2,"parameterNumberName":"U-component_of_WINDS"},"data":[0,0,0,0,0,0,0,0,0,0,0,0,0,0,0,0,0,0,0,0,0,0,0,0,0,0,0,0,0,0,0,0,0,0,0,0,0,0,0,0,0,0,0,0,0,0,0,0,0,0,0,0,0,0,0,0,0,0,-1.2347,-1.235,0,-1.2558,-1.2561,-1.2563,-1.2631,-1.263,-1.2629,-1.2628,-1.2857,-1.2864,-1.2871,0,0,0,0,0,0,0,0,0,0,0,0,0,-1.2016,-1.2021,-1.2347,-1.235,-1.2352,-1.2558,-1.2561,-1.2564,-1.2631,-1.263,-1.2629,-1.2628,-1.2855,-1.2863,-1.2872,0,0,0,0,0,0,0,0,0,0,0,0,0,-1.2187,-1.2023,-1.2347,-1.2411,-1.2418,-1.2557,-1.2561,-1.2565,-1.2632,-1.263,-1.2629,-1.2627,-1.2852,-1.2862,-1.2873,-1.2967,0,0,-1.2905,-1.2909,0,0,0,0,0,0,0,0,-1.2177,-1.2199,-1.2399,-1.2407,-1.2415,-1.2567,-1.2528,-1.27,-1.2632,-1.2551,-1.2628,-1.2627,-1.2763,-1.278,-1.2824,-1.2978,-1.2988,-1.2906,-1.2912,-1.2917,-1.292,0,0,0,0,0,0,0,-1.2165,-1.219,-1.2431,-1.2402,-1.2412,-1.2433,-1.2456,-1.2561,-1.2663,-1.2558,-1.2563,-1.2587,-1.2767,-1.2813,-1.283,-1.2991,-1.2905,-1.2915,-1.2921,-1.2925,-1.3236,-1.3238,0,0,0,0,0,0,-1.2141,-1.218,-1.2425,-1.2438,-1.229,-1.244,-1.2465,-1.252,-1.2662,-1.2682,-1.2588,-1.2589,-1.2796,-1.2817,-1.2838,-1.2959,-1.2917,-1.2926,-1.2932,-1.3234,-1.3237,-1.3239,0,0,0,0,0,0,-1.2133,-1.2162,-1.2416,-1.231,-1.2344,-1.2447,-1.2508,-1.2525,-1.2571,-1.2684,-1.2704,-1.2615,-1.2796,-1.2823,-1.2934,-1.2968,-1.2931,-1.2941,-1.3232,-1.3235,-1.3238,-1.3201,0,0,0,0,0,0,-1.2123,-1.2159,-1.2193,-1.231,-1.2349,-1.2505,-1.251,-1.253,-1.2587,-1.2591,-1.2716,-1.2735,-1.2797,-1.2918,-1.2945,-1.2982,-1.2949,-1.3229,-1.3233,-1.3237,-1.32,-1.3202,-1.3205,0,0,0,0,0,-1.2111,-1.2176,-1.2194,-1.2223,-1.2393,-1.2507,-1.253,-1.2596,-1.259,-1.2627,-1.27,-1.2731,-1.2959,-1.2929,-1.2959,-1.3,-1.3228,-1.3232,-1.3236,-1.3199,-1.3202,-1.3205,0,0,0,0,0,0,-1.2065,-1.2193,-1.2214,-1.2318,-1.24,-1.2518,-1.2566,-1.2597,-1.2686,-1.2686,-1.2768,-1.2796,-1.2901,-1.2962,-1.2926,-1.31,-1.3095,-1.3106,-1.3056,-1.306,-1.3063,-1.3047,-1.2958,0,0,0,0,0,-1.2066,-1.2142,-1.2252,-1.2334,-1.2374,-1.2463,-1.2515,-1.2558,-1.2648,-1.2685,-1.2766,-1.2856,-1.2948,-1.3008,-1.3099,-1.3209,-1.3238,-1.3252,-1.3254,-1.3256,-1.3265,-1.3329,-1.3337,-1.3253,-1.3253,-1.3253,0,0,-1.2071,-1.215,-1.2195,-1.2327,-1.2396,-1.2478,-1.2492,-1.2578,-1.2641,-1.27,-1.2808,-1.2871,-1.2977,-1.3088,-1.3141,-1.3142,-1.3294,-1.3261,-1.3261,-1.327,-1.3335,-1.3342,-1.3349,-1.3256,-1.3255,-1.3255,0,0,-1.2121,-1.2187,-1.2263,-1.2331,-1.2433,-1.2492,-1.251,-1.2622,-1.2665,-1.2774,-1.282,-1.2899,-1.3055,-1.3129,-1.3187,-1.3265,-1.3298,-1.3293,-1.3306,-1.3368,-1.3375,-1.3381,-1.3411,-1.342,-1.3301,-1.3301,-1.3301,0,-1.2115,-1.2236,-1.23,-1.2382,-1.2441,-1.2493,-1.2572,-1.2637,-1.2765,-1.2806,-1.2804,-1.3002,-1.3077,-1.3207,-1.3225,-1.327,-1.3296,-1.328,-1.3368,-1.3375,-1.3382,-1.3411,-1.3422,-1.33,-1.33,-1.33,-1.33,0,-1.2225,-1.2308,-1.2358,-1.2475,-1.2539,-1.262,-1.27,-1.2758,-1.2796,-1.2856,-1.2968,-1.306,-1.3171,-1.3204,-1.3244,-1.3341,-1.3338,-1.3351,-1.3348,-1.3387,-1.3416,-1.3428,-1.3298,-1.3298,-1.3299,-1.3299,0,0,-1.2254,-1.2403,-1.2421,-1.2475,-1.2592,-1.266,-1.2745,-1.2848,-1.2897,-1.2985,-1.306,-1.3191,-1.3203,-1.3269,-1.3318,-1.3371,-1.3429,-1.3378,-1.3382,-1.3386,-1.3544,-1.3534,-1.3546,-1.3451,-1.3453,-1.3455,-1.3535,0,-1.232,-1.2468,-1.2528,-1.2651,-1.273,-1.278,-1.2855,-1.2936,-1.2995,-1.3074,-1.3141,-1.3232,-1.324,-1.328,-1.3336,-1.341,-1.3462,-1.3405,-1.3526,-1.3529,-1.3498,-1.3561,-1.3552,-1.3623,-1.3547,-1.3549,-1.355,0,-1.2418,-1.2501,-1.2629,-1.2736,-1.2772,-1.2837,-1.2937,-1.3011,-1.3106,-1.3145,-1.3217,-1.3262,-1.3357,-1.3346,-1.348,-1.344,-1.3493,-1.3537,-1.3542,-1.3557,-1.3543,-1.358,-1.3647,-1.3658,-1.3569,-1.3567,-1.3566,0,-1.2428,-1.2572,-1.2668,-1.2713,-1.2839,-1.2884,-1.294,-1.3033,-1.3092,-1.3181,-1.3221,-1.3321,-1.3377,-1.3456,-1.3529,-1.3514,-1.3657,-1.3652,-1.3695,-1.3693,-1.3724,-1.3722,-1.3803,-1.3755,-1.3755,-1.3755,-1.3755,0,-1.2497,-1.2575,-1.2674,-1.2733,-1.2822,-1.2892,-1.298,-1.3039,-1.3121,-1.3196,-1.3248,-1.3318,-1.3408,-1.3491,-1.3549,-1.3652,-1.3677,-1.3714,-1.3729,-1.371,-1.3705,-1.3747,-1.3745,-1.3758,-1.3757,-1.3757,-1.3756,0,-1.2524,-1.2593,-1.2701,-1.281,-1.284,-1.2901,-1.2997,-1.3059,-1.3118,-1.3212,-1.3239,-1.3334,-1.3434,-1.3513,-1.3646,-1.3684,-1.3794,-1.3809,-1.376,-1.3768,-1.3808,-1.3803,-1.392,-1.394,-1.3877,-1.3877,-1.3877,0,-1.2565,-1.2625,-1.2739,-1.279,-1.2844,-1.2926,-1.2986,-1.3057,-1.3118,-1.323,-1.3279,-1.3381,-1.3467,-1.3625,-1.3709,-1.3811,-1.3831,-1.3864,-1.3847,-1.3826,-1.3834,-1.383,-1.3837,-1.3867,-1.3867,-1.3868,-1.3868,0,-1.263,-1.266,-1.2741,-1.2834,-1.2902,-1.298,-1.3059,-1.31,-1.3186,-1.3252,-1.3352,-1.3419,-1.3551,-1.3654,-1.3764,-1.3826,-1.3863,-1.3872,-1.3888,-1.3871,-1.384,-1.3859,-1.3768,-1.387,-1.387,-1.387,-1.3869,-1.3869,-1.2667,-1.2722,-1.2811,-1.29,-1.2966,-1.3038,-1.3101,-1.3167,-1.325,-1.336,-1.3399,-1.3503,-1.3598,-1.3749,-1.3812,-1.3897,-1.39,-1.3922,-1.3928,-1.3933,-1.3932,-1.3824,-1.3917,-1.3917,-1.3917,-1.3917,-1.3917,0,-1.2736,-1.2794,-1.2875,-1.2982,-1.3052,-1.3075,-1.3164,-1.3223,-1.3312,-1.3396,-1.3478,-1.3594,-1.3694,-1.3784,-1.3889,-1.394,-1.396,-1.3966,-1.3964,-1.3978,-1.3923,-1.3899,-1.3948,-1.3948,-1.3948,-1.3948,-1.3948,-1.3948,-1.278,-1.2876,-1.2917,-1.3047,-1.3107,-1.3205,-1.3254,-1.3323,-1.339,-1.3516,-1.3597,-1.3653,-1.3741,-1.3852,-1.3946,-1.397,-1.4008,-1.4009,-1.4039,-1.3986,-1.3982,-1.3978,-1.3956,-1.4016,-1.4016,-1.4087,-1.4088,-1.4088]},{"header":{"parameterUnit":"m.s-1","parameterCategory":1,"la1":30.2991,"la2":30.254,"lo1":-89.0895,"lo2":-89.0444,"dy":0.0017,"dx":0.0017,"nx":28,"ny":28,"refTime":"2025-05-01T09:00:00:Z","depth":0,"parameterNumber":3,"parameterNumberName":"V-component_of_WINDS"},"data":[0,0,0,0,0,0,0,0,0,0,0,0,0,0,0,0,0,0,0,0,0,0,0,0,0,0,0,0,0,0,0,0,0,0,0,0,0,0,0,0,0,0,0,0,0,0,0,0,0,0,0,0,0,0,0,0,0,0,5.1398,5.14,0,5.1572,5.1574,5.1576,5.1573,5.1571,5.1568,5.1566,5.1736,5.1742,5.1749,0,0,0,0,0,0,0,0,0,0,0,0,0,5.1054,5.1061,5.1398,5.14,5.1402,5.1571,5.1574,5.1576,5.1573,5.1571,5.1568,5.1565,5.1733,5.1741,5.1749,0,0,0,0,0,0,0,0,0,0,0,0,0,5.1213,5.1063,5.1397,5.1421,5.1425,5.1571,5.1574,5.1577,5.1574,5.1571,5.1567,5.1564,5.1731,5.1741,5.175,5.1881,0,0,5.1781,5.1785,0,0,0,0,0,0,0,0,5.1204,5.1226,5.1416,5.142,5.1425,5.1547,5.1515,5.1678,5.1575,5.1517,5.1566,5.1562,5.1675,5.1689,5.1729,5.1889,5.1896,5.1782,5.1788,5.1792,5.1795,0,0,0,0,0,0,0,5.1193,5.1218,5.1466,5.1418,5.1424,5.142,5.1439,5.1546,5.1613,5.1522,5.1522,5.1543,5.1677,5.172,5.1733,5.1899,5.1781,5.179,5.1796,5.18,5.217,5.2174,0,0,0,0,0,0,5.1178,5.1209,5.1461,5.1472,5.1304,5.1429,5.145,5.1511,5.1612,5.1624,5.1546,5.1543,5.1704,5.1722,5.1739,5.1897,5.1792,5.1801,5.1807,5.2167,5.2171,5.2175,0,0,0,0,0,0,5.1171,5.1201,5.1454,5.1341,5.1373,5.1439,5.1507,5.1517,5.156,5.163,5.1641,5.1578,5.1702,5.1725,5.1846,5.1903,5.1806,5.1815,5.2162,5.2168,5.2173,5.2214,0,0,0,0,0,0,5.1161,5.1198,5.1251,5.1342,5.1379,5.156,5.1511,5.1522,5.1578,5.1575,5.1663,5.1675,5.1701,5.1831,5.1856,5.1915,5.1823,5.2157,5.2165,5.2172,5.2208,5.2221,5.2231,0,0,0,0,0,5.1149,5.1254,5.1254,5.1284,5.1446,5.1564,5.1584,5.1616,5.1583,5.1634,5.1679,5.1672,5.1893,5.1843,5.1871,5.1934,5.2154,5.2163,5.2171,5.2203,5.2218,5.2231,0,0,0,0,0,0,5.1166,5.1267,5.1267,5.1406,5.1476,5.1563,5.163,5.1631,5.1711,5.1704,5.1737,5.1757,5.1876,5.1917,5.186,5.2064,5.2019,5.2033,5.2033,5.2048,5.206,5.2047,5.1831,0,0,0,0,0,5.1186,5.1276,5.1358,5.1472,5.1508,5.1563,5.1615,5.1633,5.1706,5.1735,5.1789,5.1858,5.1943,5.1998,5.208,5.2214,5.2231,5.2271,5.2282,5.2292,5.2303,5.2374,5.2392,5.2204,5.2204,5.2204,0,0,5.1228,5.1294,5.1348,5.1477,5.1534,5.1623,5.1588,5.1684,5.1749,5.1749,5.1866,5.1908,5.1987,5.2114,5.2173,5.2152,5.2359,5.2303,5.231,5.2316,5.2385,5.2403,5.2419,5.221,5.2209,5.2208,0,0,5.135,5.141,5.1511,5.1569,5.1656,5.1692,5.1716,5.1803,5.1831,5.195,5.1951,5.2028,5.2174,5.2229,5.2277,5.2418,5.2413,5.2444,5.2504,5.2573,5.2588,5.2601,5.2649,5.2666,5.2455,5.2455,5.2455,0,5.139,5.1527,5.1561,5.1659,5.1713,5.172,5.182,5.1874,5.1982,5.2018,5.1994,5.2177,5.223,5.2369,5.2404,5.2443,5.2468,5.2433,5.2583,5.2597,5.261,5.2656,5.2674,5.2458,5.2458,5.2458,5.2457,0,5.1571,5.1666,5.1736,5.1843,5.1906,5.2004,5.205,5.2109,5.2121,5.2158,5.2277,5.2342,5.2436,5.2471,5.2483,5.2611,5.2595,5.2577,5.2531,5.263,5.2674,5.2692,5.2463,5.2462,5.2461,5.246,0,0,5.1708,5.1833,5.1858,5.1906,5.2002,5.2074,5.2171,5.2266,5.2314,5.2389,5.2468,5.2591,5.2575,5.2628,5.2646,5.2707,5.2812,5.2681,5.2683,5.2701,5.2954,5.2965,5.2986,5.281,5.2813,5.2816,5.2946,0,5.1838,5.2014,5.2046,5.2197,5.2283,5.229,5.2373,5.244,5.2476,5.2552,5.2592,5.2678,5.2651,5.2683,5.2743,5.2786,5.2862,5.2778,5.2881,5.2884,5.2859,5.3009,5.3022,5.3142,5.2964,5.2967,5.2969,0,5.2014,5.2095,5.2255,5.2338,5.2375,5.2451,5.2539,5.2613,5.2686,5.2708,5.2768,5.2779,5.2876,5.2828,5.296,5.2901,5.2945,5.2972,5.2977,5.2987,5.2931,5.302,5.3181,5.3199,5.2997,5.2994,5.2992,0,5.2095,5.2244,5.2358,5.2399,5.25,5.2552,5.2595,5.2666,5.272,5.2796,5.2831,5.2917,5.2963,5.3027,5.306,5.3022,5.3189,5.3143,5.3207,5.3206,5.324,5.3238,5.3409,5.3272,5.3272,5.3271,5.3271,0,5.2237,5.2334,5.2396,5.2466,5.2574,5.2609,5.2714,5.2756,5.2819,5.2895,5.2905,5.2975,5.3015,5.309,5.3115,5.3219,5.3241,5.3259,5.3264,5.3257,5.3255,5.3285,5.3277,5.3276,5.3275,5.3274,5.3273,0,5.2345,5.2392,5.2516,5.2602,5.2625,5.27,5.2771,5.2838,5.2874,5.297,5.2994,5.3051,5.314,5.3179,5.3288,5.3305,5.3423,5.3423,5.3399,5.34,5.3461,5.3454,5.3656,5.3684,5.353,5.3532,5.3533,0,5.2432,5.2507,5.26,5.2653,5.2699,5.2784,5.2839,5.2876,5.2933,5.3022,5.3076,5.3166,5.324,5.3381,5.343,5.3512,5.3513,5.3578,5.3525,5.3515,5.3511,5.3506,5.3512,5.3587,5.3589,5.359,5.3591,0,5.2579,5.2598,5.268,5.2769,5.2835,5.2906,5.2976,5.3017,5.3064,5.3127,5.3219,5.3277,5.3388,5.3476,5.3562,5.3603,5.3604,5.3608,5.3626,5.3619,5.3601,5.361,5.3423,5.3603,5.3601,5.3601,5.36,5.36,5.2678,5.2744,5.282,5.291,5.2966,5.303,5.3097,5.3142,5.322,5.3316,5.3332,5.3429,5.3498,5.3614,5.3659,5.3733,5.3717,5.3744,5.3751,5.3757,5.3759,5.3591,5.3749,5.3749,5.3748,5.3748,5.3748,0,5.2825,5.2874,5.2956,5.3053,5.3123,5.3121,5.3197,5.3254,5.3341,5.3406,5.3479,5.3583,5.3668,5.3724,5.3808,5.3857,5.386,5.3878,5.3874,5.3883,5.377,5.3745,5.3875,5.3875,5.3875,5.3875,5.3874,5.3874,5.2909,5.302,5.3048,5.3185,5.3233,5.3331,5.3374,5.3432,5.3485,5.3602,5.3673,5.3709,5.377,5.3859,5.3936,5.3949,5.3979,5.3998,5.4011,5.3904,5.3891,5.3878,5.3854,5.4005,5.4005,5.4117,5.4118,5.4118]}]]